Weather History for Scappoose, OR

Change the Weather History Date:

Friday, March 15, 2013

  Actual Average Record
Temperature  
Mean Temperature 54 °F -  
Max Temperature 64 °F - 64 °F (2013)
Min Temperature 40 °F - 28 °F (2007)
Degree Days  
Heating Degree Days 13    
Month to date heating degree days 280  
Since 1 July heating degree days 3661  
Cooling Degree Days 0    
Month to date cooling degree days 0  
Year to date cooling degree days 0  
Growing Degree Days 4 (Base 50)    
Moisture  
Dew Point 46 °F    
Average Humidity 73    
Maximum Humidity 93    
Minimum Humidity 52    
Precipitation  
Precipitation 0.00 in - 1.16 in (2012)
Month to date precipitation 0.73  
Year to date precipitation 4.59  
Sea Level Pressure  
Sea Level Pressure 30.20 in    
Wind  
Wind Speed 3 mph (NE)    
Max Wind Speed 13 mph    
Max Gust Speed 16 mph    
Visibility 10 miles    
Events      
T = Trace of Precipitation, MM = Missing Value Source: NWS Daily Summary

Daily Weather History Graph

Daily Weather History Graph

Search for Another Location

Airport:

Trip Planner

Search our weather history database for the weather conditions in past years. The results will help you decide how hot, cold, wet, or windy it might be!

Date:

Astronomy

Mar. 15, 2013 Rise Set
Actual Time 7:23 AM PDT 7:17 PM PDT
Civil Twilight 6:53 AM PDT 7:47 PM PDT
Nautical Twilight 6:19 AM PDT 8:22 PM PDT
Astronomical Twilight 5:43 AM PDT 8:57 PM PDT
Moon 9:03 AM PDT (3/15) 11:52 PM PDT (3/15)
Length of Visible Light 12h 53m
Length of Day
11h 54m
Waxing Crescent, 16% of the Moon is Illuminated
Mar 15
Waxing Crescent
Mar 19
First Quarter
Mar 27
Full
Apr 2
Last Quarter
Apr 10
New

Hourly Weather History & Observations

Time (PDT) Temp. Dew Point Humidity Pressure Visibility Wind Dir Wind Speed Gust Speed Precip Events Conditions
12:53 AM 48.0 °F 45.0 °F 89% 30.21 in 10.0 mi Calm Calm - N/A   Overcast
1:53 AM 48.0 °F 45.0 °F 89% 30.21 in 10.0 mi Calm Calm - N/A   Overcast
2:53 AM 46.9 °F 44.1 °F 90% 30.22 in 10.0 mi Calm Calm - N/A   Overcast
3:53 AM 48.0 °F 45.0 °F 89% 30.20 in 10.0 mi West 3.5 mph - N/A   Overcast
4:53 AM 46.9 °F 44.1 °F 90% 30.20 in 10.0 mi Calm Calm - N/A   Overcast
5:53 AM 46.9 °F 44.1 °F 90% 30.21 in 10.0 mi Calm Calm - N/A   Overcast
6:53 AM 46.0 °F 44.1 °F 93% 30.21 in 10.0 mi Calm Calm - N/A   Overcast
7:53 AM 46.9 °F 44.1 °F 90% 30.22 in 10.0 mi Calm Calm - N/A   Overcast
8:53 AM 50.0 °F 46.0 °F 86% 30.23 in 10.0 mi Calm Calm - N/A   Mostly Cloudy
9:53 AM 53.1 °F 46.9 °F 80% 30.23 in 10.0 mi Calm Calm - N/A   Scattered Clouds
10:04 AM 53.6 °F 48.2 °F 82% 30.23 in 10.0 mi Calm Calm - N/A   Mostly Cloudy
10:53 AM 55.9 °F 48.0 °F 75% 30.23 in 10.0 mi Variable 3.5 mph - N/A   Mostly Cloudy
11:49 AM 57.2 °F 48.2 °F 72% 30.23 in 10.0 mi ESE 4.6 mph - N/A   Mostly Cloudy
11:53 AM 57.0 °F 48.0 °F 72% 30.23 in 10.0 mi ESE 4.6 mph - N/A   Mostly Cloudy
12:53 PM 60.1 °F 46.9 °F 62% 30.22 in 10.0 mi SE 5.8 mph - N/A   Mostly Cloudy
1:53 PM 61.0 °F 45.0 °F 56% 30.21 in 10.0 mi SSW 6.9 mph - N/A   Overcast
2:53 PM 61.0 °F 46.0 °F 58% 30.19 in 10.0 mi SE 6.9 mph - N/A   Scattered Clouds
3:53 PM 62.1 °F 44.1 °F 52% 30.17 in 10.0 mi SW 5.8 mph - N/A   Clear
4:53 PM 60.1 °F 46.0 °F 60% 30.17 in 10.0 mi North 10.4 mph - N/A   Mostly Cloudy
5:53 PM 59.0 °F 46.0 °F 62% 30.17 in 10.0 mi North 6.9 mph - N/A   Mostly Cloudy
6:53 PM 57.9 °F 46.9 °F 67% 30.17 in 10.0 mi Calm Calm - N/A   Mostly Cloudy
7:53 PM 54.0 °F 48.0 °F 80% 30.17 in 10.0 mi North 6.9 mph - N/A   Clear
8:53 PM 51.1 °F 46.9 °F 86% 30.18 in 10.0 mi North 6.9 mph - N/A   Clear
9:53 PM 48.9 °F 45.0 °F 86% 30.18 in 10.0 mi North 8.1 mph - N/A   Clear
10:53 PM 46.0 °F 44.1 °F 93% 30.18 in 10.0 mi Calm Calm - N/A   Clear
11:53 PM 42.1 °F 39.9 °F 92% 30.18 in 5.0 mi Calm Calm - N/A   Clear